Valikko       Alkaa   X °F

Select another period ( hide this area )

Units Period Custom range Directly to
Metric English Both
Daily Weekly Monthly Yearly
use both date-selectors for a custom range
previous Day
With this date
Daily Summary for Thursday 20 June 2024
Time Temp. ( °C ) Dew pt. ( °C ) Wind ( km/h ) From Gust ( km/h ) Pressure ( hPa ) Humid.( % ) Rainrate ( cm )
High18,9 15,3 21,0 NNE ( 624/1660 ) 21,0 1022,1 93 -
Average14,1 12,1 9,5 NNE #70/174 7,3 1020,8 88 -
Low11,3 10,0 -   0,0 1019,1 78 -
Daily Tabular details for Thursday 20 June 2024
Time Temp. ( °C ) Dew pt. ( °C ) Wind ( km/h ) From Gust ( km/h ) Pressure ( hPa ) Humid.( % ) Rainrate ( cm )
00:04 12,8 10,8 7,0 NE 8,0 1021,8 88 -
00:09 12,8 10,8 6,0 NNE 3,0 1021,8 88 -
00:13 12,7 10,8 6,0 NNE 3,0 1021,9 88 -
00:19 12,7 10,7 4,0 NNE 5,0 1021,9 88 -
00:24 12,6 10,8 4,0 NNE 1,0 1021,8 89 -
00:29 12,6 10,8 6,0 NNE 3,0 1021,7 89 -
00:34 12,6 10,8 6,0 North 5,0 1021,7 89 -
00:39 12,5 10,7 6,0 North 3,0 1021,8 89 -
00:44 12,5 10,7 6,0 North 4,0 1021,7 89 -
00:48 12,5 10,7 4,0 North 5,0 1021,7 89 -
00:54 12,4 10,7 4,0 North 3,0 1021,7 90 -
00:59 12,3 10,7 5,0 North 3,0 1021,8 90 -
01:09 12,2 10,6 6,0 North 3,0 1021,7 90 -
01:13 12,2 10,6 9,0 North 6,0 1021,8 90 -
01:19 12,2 10,6 6,0 North 10,0 1021,8 90 -
01:24 12,1 10,7 2,0 North 1,0 1021,8 91 -
01:29 12,1 10,4   Calm   1021,9 90 -
01:34 11,9 10,3   Calm   1021,9 90 -
01:39 11,8 10,4   Calm   1021,9 91 -
01:44 11,8 10,3   Calm   1021,7 91 -
01:49 11,7 10,2 4,0 North 2,0 1021,7 91 -
01:54 11,6 10,1 7,0 North 3,0 1021,5 91 -
01:59 11,7 10,4 7,0 North 5,0 1021,4 92 -
02:04 11,7 10,4 7,0 North 6,0 1021,4 92 -
02:09 11,7 10,4 4,0 North 2,0 1021,5 92 -
02:14 11,7 10,4 2,0 North   1021,7 92 -
02:19 11,7 10,4 2,0 North 8,0 1021,7 92 -
02:23 11,7 10,4 2,0 North 1,0 1021,8 92 -
02:29 11,7 10,4 4,0 North 1,0 1021,9 92 -
02:33 11,6 10,3   Calm   1021,8 92 -
02:39 11,6 10,3   Calm   1021,9 92 -
02:44 11,4 10,1 4,0 North 1,0 1022,0 92 -
02:49 11,3 10,0 4,0 North 1,0 1022,1 92 -
02:54 11,3 10,2   Calm   1022,1 93 -
02:59 11,3 10,2   Calm   1021,9 93 -
03:04 11,3 10,2 4,0 North 1,0 1021,7 93 -
03:09 11,4 10,3 6,0 North 2,0 1021,6 93 -
03:14 11,5 10,4 7,0 North 4,0 1021,4 93 -
03:19 11,5 10,4 6,0 North 8,0 1021,4 93 -
03:24 11,6 10,4 4,0 NNE 1,0 1021,4 93 -
03:29 11,6 10,4 4,0 NNE 1,0 1021,3 93 -
03:34 11,6 10,4 6,0 NNE 3,0 1021,3 93 -
03:39 11,6 10,5 6,0 NNE 2,0 1021,2 93 -
03:44 11,7 10,6 6,0 NNE 3,0 1021,3 93 -
03:49 11,7 10,6 6,0 NNE 3,0 1021,2 93 -
03:54 11,7 10,6 4,0 NNE 2,0 1021,2 93 -
03:59 11,7 10,6 6,0 NNE 5,0 1021,0 93 -
04:04 11,7 10,6 7,0 NNE 5,0 1021,2 93 -
04:09 11,7 10,6 6,0 NNE 3,0 1021,4 93 -
04:14 11,7 10,6 4,0 NNE 1,0 1021,5 93 -
04:19 11,7 10,6 4,0 NNE 8,0 1021,6 93 -
04:23 11,7 10,6 4,0 NNE 1,0 1021,8 93 -
04:29 11,7 10,6 5,0 NNE 4,0 1021,7 93 -
04:33 11,6 10,5 6,0 NNE 4,0 1021,8 93 -
04:39 11,6 10,4 4,0 NNE 2,0 1021,7 93 -
04:44 11,6 10,4 6,0 NNE 3,0 1021,5 93 -
04:49 11,6 10,5 4,0 NNE 3,0 1021,5 93 -
04:54 11,7 10,6 6,0 NNE 4,0 1021,4 93 -
04:59 11,7 10,6 6,0 NNE 4,0 1021,4 93 -
05:04 11,7 10,6 6,0 NNE 5,0 1021,2 93 -
05:09 11,7 10,6 6,0 NNE 1,0 1021,3 93 -
05:14 11,7 10,6 6,0 NNE 3,0 1021,3 93 -
05:19 11,7 10,6 4,0 NNE 5,0 1021,3 93 -
05:24 11,6 10,5 4,0 NNE 2,0 1021,3 93 -
05:29 11,6 10,5 7,0 NNE 5,0 1021,2 93 -
05:34 11,7 10,6 6,0 NNE 8,0 1021,1 93 -
05:39 11,7 10,6 6,0 NNE 3,0 1021,3 93 -
05:43 11,7 10,6 7,0 NE 4,0 1021,3 93 -
05:49 11,8 10,7 6,0 NE 8,0 1021,3 93 -
05:54 11,8 10,7 6,0 NE 3,0 1021,4 93 -
05:58 11,9 10,8 2,0 NE 1,0 1021,6 93 -
06:04 11,9 10,8 4,0 NE 5,0 1021,6 93 -
06:09 11,9 10,8   Calm   1021,5 93 -
06:14 11,9 10,8 4,0 NE 2,0 1021,5 93 -
06:19 11,9 10,8 6,0 NE 3,0 1021,4 93 -
06:23 11,9 10,8 6,0 NNE 4,0 1021,4 93 -
06:29 12,1 10,9 6,0 NNE 4,0 1021,4 93 -
06:34 12,1 10,9 4,0 NNE 5,0 1021,3 93 -
06:39 12,1 11,0 7,0 NNE 4,0 1021,1 93 -
06:44 12,2 11,1 7,0 NNE 5,0 1020,9 93 -
06:49 12,2 11,1 7,0 North 8,0 1020,8 93 -
06:54 12,2 11,1 13,0 North 7,0 1020,5 93 -
06:59 12,3 11,2 13,0 NE 6,0 1020,5 93 -
07:04 12,3 11,2 9,0 North 13,0 1020,5 93 -
07:09 12,4 11,3 7,0 NNE 5,0 1020,5 93 -
07:13 12,4 11,3 12,0 NNE 8,0 1020,4 93 -
07:19 12,6 11,4 9,0 NNE 13,0 1020,4 93 -
07:24 12,6 11,3 12,0 North 8,0 1020,0 92 -
07:29 12,7 11,4 11,0 North 8,0 1020,0 92 -
07:34 12,7 11,4 11,0 North 13,0 1020,0 92 -
07:38 12,8 11,6 11,0 NNE 8,0 1020,2 92 -
07:44 12,9 11,6 11,0 NNE 4,0 1020,3 92 -
07:49 13,0 11,7 7,0 NNE 11,0 1020,5 92 -
07:54 13,2 11,9 9,0 NNE 6,0 1020,7 92 -
07:59 13,2 11,9 9,0 ENE 6,0 1020,9 92 -
08:04 13,3 11,9 9,0 East 10,0 1021,0 91 -
08:09 13,6 12,1 9,0 NNE 5,0 1021,1 91 -
08:14 13,7 12,3 9,0 NE 6,0 1021,0 91 -
08:19 14,0 12,5 12,0 NNE 10,0 1021,1 91 -
08:24 14,1 12,5 11,0 NNE 6,0 1021,0 90 -
08:29 14,3 12,6 12,0 NNE 8,0 1021,0 89 -
08:34 14,4 12,7 13,0 North 13,0 1021,1 89 -
08:39 14,6 12,7 13,0 NNE 8,0 1021,3 88 -
08:44 14,7 12,7 12,0 NE 8,0 1021,3 88 -
08:49 14,8 12,8 9,0 NE 13,0 1021,4 88 -
08:54 14,9 12,8 9,0 ENE 4,0 1021,5 87 -
08:58 15,0 12,8 6,0 NNE 3,0 1021,5 87 -
09:04 15,2 13,1 11,0 NE 10,0 1021,6 87 -
09:09 15,2 12,9 17,0 North 10,0 1021,5 86 -
09:14 15,4 12,9 9,0 NNW 6,0 1021,6 85 -
09:19 15,5 12,8 15,0 North 16,0 1021,4 84 -
09:23 15,6 12,7 12,0 North 6,0 1021,4 83 -
09:29 15,7 12,8 9,0 ENE 5,0 1021,4 83 -
09:34 15,9 13,1 11,0 NE 13,0 1021,4 83 -
09:39 15,9 12,9 14,0 NNE 8,0 1021,3 82 -
09:44 16,3 13,4 14,0 NNE 7,0 1021,2 83 -
09:49 16,5 13,4 15,0 North 15,0 1021,2 83 -
09:54 16,6 13,3 13,0 NNW 7,0 1021,0 81 -
09:59 16,6 13,3 9,0 NE 7,0 1020,9 81 -
10:04 16,8 13,5 19,0 North 19,0 1020,6 81 -
10:09 16,7 13,4 19,0 North 15,0 1020,5 81 -
10:13 16,7 13,4 13,0 ENE 7,0 1020,3 81 -
10:19 16,7 13,4 17,0 ENE 19,0 1020,3 81 -
10:24 16,3 13,1 16,0 NE 8,0 1020,1 81 -
10:29 16,3 12,9 13,0 NNE 9,0 1020,1 81 -
10:33 16,1 12,8 14,0 NNE 16,0 1020,0 81 -
10:39 16,0 12,7 20,0 North 11,0 1020,0 81 -
10:44 15,9 12,9 17,0 North 11,0 1020,0 82 -
10:49 16,0 12,9 21,0 NE 21,0 1019,9 82 -
10:54 16,0 12,9 13,0 NE 8,0 1019,9 82 -
10:59 15,9 13,0 21,0 NNE 15,0 1019,9 83 -
11:04 15,8 13,1 14,0 NNE 21,0 1020,0 84 -
11:09 15,9 13,2 13,0 NNE 8,0 1020,0 84 -
11:13 16,1 13,3 16,0 North 7,0 1020,1 84 -
11:19 16,2 13,5 21,0 North 16,0 1020,1 84 -
11:24 16,3 13,6 20,0 North 8,0 1020,1 84 -
11:28 16,3 13,4 13,0 ENE 11,0 1020,1 83 -
11:34 16,3 13,4 19,0 NNE 21,0 1020,1 83 -
11:39 16,3 13,6 17,0 NE 9,0 1020,0 84 -
11:44 16,4 13,7 15,0 NNE 7,0 1020,2 84 -
11:48 16,5 13,8 19,0 East 19,0 1020,1 84 -
11:54 16,6 13,8 19,0 NE 10,0 1020,0 84 -
11:59 16,6 13,9 17,0 NE 10,0 1020,0 84 -
12:04 16,8 14,1 11,0 NE 19,0 1020,0 84 -
12:09 17,1 14,3 15,0 North 11,0 1020,0 84 -
12:14 17,2 14,4 16,0 North 11,0 1019,7 84 -
12:19 17,3 14,4 13,0 NNE 16,0 1019,7 83 -
12:24 17,3 14,2 15,0 NE 10,0 1019,6 82 -
12:29 17,3 14,4 15,0 NNE 10,0 1019,6 83 -
12:34 17,3 14,4 16,0 NE 16,0 1019,6 83 -
12:39 17,4 14,5 21,0 North 13,0 1019,5 83 -
12:44 17,7 14,7 15,0 NNE 10,0 1019,5 83 -
12:49 17,7 14,6 15,0 NE 21,0 1019,5 82 -
12:54 17,8 14,7 14,0 NNE 8,0 1019,6 82 -
12:59 17,9 14,8 15,0 ENE 8,0 1019,6 82 -
13:04 17,9 14,8 17,0 NNE 16,0 1019,6 82 -
13:09 17,9 14,8 11,0 NNE 6,0 1019,5 82 -
13:14 17,9 14,8 11,0 NE 8,0 1019,5 82 -
13:19 17,9 14,8 13,0 ENE 13,0 1019,5 82 -
13:23 17,9 14,8 15,0 NE 8,0 1019,4 82 -
13:29 17,9 14,8 20,0 North 13,0 1019,4 82 -
13:34 18,1 14,9 17,0 North 21,0 1019,2 82 -
13:39 18,3 15,2 9,0 North 6,0 1019,2 82 -
13:44 18,3 15,0 19,0 NNE 11,0 1019,2 81 -
13:49 18,3 14,8 20,0 NNE 19,0 1019,1 80 -
13:54 18,3 14,8 19,0 North 12,0 1019,3 80 -
13:59 18,4 14,9 13,0 NE 9,0 1019,4 80 -
14:04 18,6 15,1 13,0 NNW 21,0 1019,4 80 -
14:09 18,8 15,3 11,0 North 10,0 1019,3 80 -
14:13 18,9 15,2 11,0 North 9,0 1019,3 79 -
14:19 18,9 15,2 17,0 North 16,0 1019,3 79 -
14:24 18,8 14,9 18,0 NNE 10,0 1019,2 78 -
14:28 18,8 14,9 13,0 North 7,0 1019,1 78 -
14:34 18,9 15,2 11,0 NNE 18,0 1019,1 79 -

Our weather-data as stored at Weather Underground. Original script b Jim McMurry. Rewritten for template use Leuven-Template